Location: Casaglia
(44.0333°N, 11.5167°E)
Time: 02:52:33
(UTC+00:00)

STARLINK-60 - Pass Details

Date: 07 June 2020
Orbit: 382 x 389 km, 53.0° (Epoch: 11 July)

Event Time Altitude Azimuth Distance (km) Brightness Sun altitude
Rises 02:11:27 0° 295° (WNW) 2,279 6.6 -11.7°
Reaches altitude 10° 02:13:45 10° 280° (W) 1,424 5.4 -11.4°
Maximum altitude 02:16:21 23° 225° (SW) 880 4.0 -11.1°
Drops below altitude 10° 02:18:58 10° 170° (S) 1,424 5.4 -10.8°
Sets 02:21:16 0° 156° (SSE) 2,279 6.6 -10.5°
